Find Starlink 30540

NORAD ID: 58002 Int'l Des: 2023-153 Owner: SPXS Country: US Constellation: starlink operational
LEOCIRCULAR

Live-Position

3D-Globus wird geladen...

Über Starlink 30540

Beschreibung wird geladen...

Nächste Überflüge

Passes for default location (London). Set your location on the main map for personalized predictions.

Höhenverlauf

Loading altitude history...

Zweizeiliger Elementsatz

1 58002U 23153M 26123.25271032 .00000365 00000-0 22811-4 0 9997
2 58002 43.0016 118.6726 0001742 262.0304 98.0350 15.27571410143144
Epoch: 3. Mai 2026 • Age: 14 hours

Aktueller Status

Höhe 484.9 km
Geschwindigkeit 7.62 km/s
Subsatellitenpunkt -11.90°S, 61.05°W
Startdatum 5. Okt. 2023
Alter 2.5 years
Typ internet

Technische Details

Klassifizierung Payload
Masse 730.00 kg
Trockenmasse 700.00 kg
Gesamtmasse 730.00 kg
Länge 0.30 m
Durchmesser 4.10 m
Spannweite 29.00 m
Form Box + pan
Hersteller SPXS
Bus-Typ Starlink V2M
Phasenstatus In Orbit
Besitzer/Staat SPXS/US

Most Searched